DO7FJK-87 Weather Reports


time (UTC)temp
F
wind
direction
speed
knots
gust
knots
rain 1hr
in
rain 24hr
in
rain mn
in
humidity
%
barometer
mb
20260507105000 63 0 5.2 0.0 0.00 0.00 0.00 54
20260507104001 63 0 5.2 0.0 0.00 0.00 0.00 56
20260507103000 63 0 3.5 0.0 0.00 0.00 0.00 55
20260507102000 62 0 6.1 0.0 0.00 0.00 0.00 59
20260507101001 60 0 7.0 0.0 0.00 0.00 0.00 57
20260507100000 61 0 5.2 0.0 0.00 0.00 0.00 57
20260507095000 61 0 3.5 0.0 0.00 0.00 0.00 58
20260507094000 61 0 5.2 0.0 0.00 0.00 0.00 60
20260507093000 60 0 4.3 0.0 0.00 0.00 0.00 62
20260507092000 60 0 5.2 0.0 0.00 0.00 0.00 63
20260507091000 59 0 4.3 0.0 0.00 0.00 0.00 62
20260507090000 58 0 5.2 0.0 0.00 0.00 0.00 63
20260507085000 58 0 3.5 0.0 0.00 0.00 0.00 63
20260507084000 57 0 5.2 0.0 0.00 0.00 0.00 64
20260507083000 57 0 4.3 0.0 0.00 0.00 0.00 68
20260507082000 57 0 5.2 0.0 0.00 0.00 0.00 68
20260507081000 56 0 3.5 0.0 0.00 0.00 0.00 68
20260507080000 56 0 4.3 0.0 0.00 0.00 0.00 69
20260507075000 55 0 2.6 0.0 0.00 0.00 0.00 70
20260507074000 54 0 3.5 0.0 0.00 0.00 0.00 71
20260507073000 54 0 3.5 0.0 0.00 0.00 0.00 72
20260507072000 54 0 3.5 0.0 0.00 0.00 0.00 73
20260507071000 53 0 2.6 0.0 0.00 0.00 0.00 74
20260507070001 52 0 3.5 0.0 0.00 0.00 0.00 77
20260507065000 49 0 3.5 0.0 0.00 0.00 0.00 79
20260507064000 49 0 0.0 0.0 0.00 0.00 0.00 79
20260507063000 49 0 0.0 0.0 0.00 0.00 0.00 80
20260507062000 48 0 1.7 0.0 0.00 0.00 0.00 81
20260507061000 47 0 1.7 0.0 0.00 0.00 0.00 83
20260507060000 46 0 3.5 0.0 0.00 0.00 0.00 85
20260507055000 45 0 2.6 0.0 0.00 0.00 0.00 85
20260507054000 45 0 0.0 0.0 0.00 0.00 0.00 86
20260507053000 44 0 0.0 0.0 0.00 0.00 0.00 86
20260507052000 44 0 1.7 0.0 0.00 0.00 0.00 86
20260507051000 44 0 0.0 0.0 0.00 0.00 0.00 86
20260507050000 44 0 0.0 0.0 0.00 0.00 0.00 86
20260507045001 44 0 1.7 0.0 0.00 0.00 0.00 86
20260507044000 44 0 0.0 0.0 0.00 0.00 0.00 86
20260507043000 44 0 2.6 0.0 0.00 0.00 0.00 86
20260507042000 44 0 0.0 0.0 0.00 0.00 0.00 86
20260507041000 44 0 0.0 0.0 0.00 0.00 0.00 86
20260507040000 44 0 2.6 0.0 0.00 0.00 0.00 86
20260507035000 44 0 0.0 0.0 0.00 0.00 0.00 86
20260507034001 44 0 3.5 0.0 0.00 0.00 0.00 86
20260507033001 44 0 2.6 0.0 0.00 0.00 0.00 86
20260507032000 44 0 0.0 0.0 0.00 0.00 0.00 86
20260507031000 44 0 2.6 0.0 0.00 0.00 0.00 86
20260507030000 44 0 2.6 0.0 0.00 0.00 0.00 85
20260507025001 45 0 0.0 0.0 0.00 0.00 0.00 85
20260507024000 45 0 2.6 0.0 0.00 0.00 0.00 85
20260507023000 45 0 0.0 0.0 0.00 0.00 0.00 85
20260507022000 45 0 5.2 0.0 0.00 0.00 0.00 85
20260507021000 45 0 4.3 0.0 0.00 0.00 0.00 85
20260507020000 45 0 3.5 0.0 0.00 0.00 0.00 85
20260507015000 45 0 0.0 0.0 0.00 0.00 0.00 85
20260507014000 45 0 0.0 0.0 0.00 0.00 0.00 85
20260507013000 45 0 0.0 0.0 0.00 0.00 0.00 85
20260507012000 45 0 0.0 0.0 0.00 0.00 0.00 85
20260507011000 45 0 0.0 0.0 0.00 0.00 0.00 84
20260507010000 45 0 2.6 0.0 0.00 0.00 0.00 84
20260507005001 45 0 3.5 0.0 0.00 0.00 0.00 84
20260507004000 46 0 0.0 0.0 0.00 0.00 0.00 84
20260507003000 46 0 0.0 0.0 0.00 0.00 0.00 84
20260507002000 46 0 0.0 0.0 0.00 0.00 0.00 84
20260507001001 46 0 3.5 0.0 0.00 0.00 0.00 83
20260507000001 46 0 3.5 0.0 0.00 0.00 0.00 83
20260506235000 46 0 3.5 0.0 0.00 0.00 0.00 83
20260506234001 46 0 6.1 0.0 0.00 0.00 0.00 84
20260506233000 47 0 0.0 0.0 0.00 0.00 0.00 84
20260506232000 47 0 1.7 0.0 0.00 0.00 0.00 84
20260506231001 47 0 0.0 0.0 0.00 0.00 0.00 84
20260506230000 47 0 3.5 0.0 0.00 0.00 0.00 84
20260506225000 47 0 3.5 0.0 0.00 0.00 0.00 84
20260506224000 47 0 0.0 0.0 0.00 0.00 0.00 84
20260506223000 47 0 3.5 0.0 0.00 0.00 0.00 84
20260506222000 47 0 0.0 0.0 0.00 0.00 0.00 84
20260506221000 47 0 1.7 0.0 0.00 0.00 0.00 83
20260506220000 47 0 3.5 0.0 0.00 0.00 0.00 83
20260506215000 48 0 5.2 0.0 0.00 0.00 0.00 83
20260506214001 48 0 3.5 0.0 0.00 0.00 0.00 83
20260506213000 48 0 1.7 0.0 0.00 0.00 0.00 83
20260506212000 48 0 4.3 0.0 0.00 0.00 0.00 84
20260506211000 49 0 4.3 0.0 0.00 0.00 0.00 85
20260506210000 49 0 0.0 0.0 0.00 0.00 0.00 85
20260506205000 48 0 3.5 0.0 0.00 0.00 0.00 85
20260506204000 48 0 4.3 0.0 0.00 0.00 0.00 85
20260506203000 48 0 0.0 0.0 0.00 0.00 0.00 85
20260506202000 48 0 1.7 0.0 0.00 0.00 0.00 85
20260506201000 48 0 2.6 0.0 0.00 0.00 0.00 85
20260506200000 48 0 1.7 0.0 0.00 0.00 0.00 85
20260506195000 48 0 4.3 0.0 0.00 0.00 0.00 85
20260506194001 48 0 3.5 0.0 0.00 0.00 0.00 85
20260506193000 49 0 0.0 0.0 0.00 0.00 0.00 85
20260506192000 49 0 0.0 0.0 0.00 0.00 0.00 85
20260506190000 49 0 3.5 0.0 0.00 0.00 0.00 84
20260506185000 49 0 3.5 0.0 0.00 0.00 0.00 84
20260506184000 49 0 5.2 0.0 0.00 0.00 0.00 84
20260506183000 49 0 3.5 0.0 0.00 0.00 0.00 84
20260506182000 49 0 4.3 0.0 0.00 0.00 0.00 84
20260506181000 50 0 5.2 0.0 0.00 0.00 0.00 84
20260506180000 50 0 5.2 0.0 0.00 0.00 0.00 84
20260506175001 50 0 6.1 0.0 0.00 0.00 0.00 84
20260506174000 50 0 4.3 0.0 0.00 0.00 0.00 84
20260506173000 50 0 4.3 0.0 0.00 0.00 0.00 84
20260506172001 50 0 6.1 0.0 0.00 0.00 0.00 84
20260506171000 51 0 5.2 0.0 0.00 0.00 0.00 84
20260506170000 51 0 5.2 0.0 0.00 0.00 0.00 83
20260506165000 51 0 7.0 0.0 0.00 0.00 0.00 83
20260506164000 51 0 5.2 0.0 0.00 0.00 0.00 83
20260506163000 51 0 5.2 0.0 0.00 0.00 0.00 82
20260506162000 52 0 5.2 0.0 0.00 0.00 0.00 82
20260506161000 52 0 3.5 0.0 0.00 0.00 0.00 82
20260506160000 52 0 4.3 0.0 0.00 0.00 0.00 81
20260506155000 52 0 4.3 0.0 0.00 0.00 0.00 80
20260506154001 52 0 6.1 0.0 0.00 0.00 0.00 79
20260506153000 53 0 4.3 0.0 0.00 0.00 0.00 77
20260506152000 53 0 5.2 0.0 0.00 0.00 0.00 76
20260506151000 53 0 4.3 0.0 0.00 0.00 0.00 77
20260506150000 54 0 4.3 0.0 0.00 0.00 0.00 77
20260506145000 54 0 6.1 0.0 0.00 0.00 0.00 77
20260506144000 54 0 5.2 0.0 0.00 0.00 0.00 78
20260506143000 54 0 4.3 0.0 0.00 0.00 0.00 77
20260506142000 55 0 5.2 0.0 0.00 0.00 0.00 75
20260506141000 55 0 5.2 0.0 0.00 0.00 0.00 74
20260506140000 55 0 4.3 0.0 0.00 0.00 0.00 74
20260506135000 55 0 6.1 0.0 0.00 0.00 0.00 71
20260506134000 54 0 5.2 0.0 0.00 0.00 0.00 69
20260506133000 54 0 5.2 0.0 0.00 0.00 0.00 70
20260506132000 55 0 6.1 0.0 0.00 0.00 0.00 70
20260506131000 55 0 5.2 0.0 0.00 0.00 0.00 70
20260506130000 55 0 7.0 0.0 0.00 0.00 0.00 69
20260506125000 56 0 7.8 0.0 0.00 0.00 0.00 67
20260506124001 56 0 7.0 0.0 0.00 0.00 0.00 67
20260506123001 57 0 7.8 0.0 0.00 0.00 0.00 67
20260506122000 57 0 7.0 0.0 0.00 0.00 0.00 66
20260506121001 57 0 5.2 0.0 0.00 0.00 0.00 67
20260506120000 56 0 6.1 0.0 0.00 0.00 0.00 67
20260506115000 57 0 6.1 0.0 0.00 0.00 0.00 69
20260506114000 57 0 6.1 0.0 0.00 0.00 0.00 68
20260506113000 57 0 8.7 0.0 0.00 0.00 0.00 70
20260506112000 56 0 6.1 0.0 0.00 0.00 0.00 71
20260506111001 56 0 6.1 0.0 0.00 0.00 0.00 69
20260506110000 56 0 8.7 0.0 0.00 0.00 0.00 68